Regional Weather Roundup
Issued by NWS Goodland, KS

Home | Current Version | Previous Version | Text Only | Print | Product List | Glossary Off
Versions: 1 2 3 4 5 6 7 8 9 10 11 12 13 14 15 16 17 18 19 20 21 22 23 24 25 26 27 28 29 30 31 32 33 34 35 36 37 38 39 40 41 42 43 44 45 46 47 48 49 50

000
ASUS43 KGLD 281959
RWRGLD

GOODLAND FORECAST AREA HOURLY WEATHER ROUNDUP
NATIONAL WEATHER SERVICE GOODLAND KS
200 PM MDT THU JUL 28 2016

...OFFICIAL OBSERVATIONS...

CITY           SKY/WX    TMP DP  RH WIND       PRES   REMARKS
GOODLAND KS    SUNNY     82  62  50 N7        30.13R
HILL CITY KS   CLOUDY    83  68  60 SE16G23   29.91F
IMPERIAL NEB   CLOUDY    68  61  78 NE16      30.13F
MCCOOK NEB     CLOUDY    77  67  71 NE9       30.05S
AKRON CO       SUNNY     73  59  61 E16G23    30.16F
BURLINGTON CO  SUNNY     82  60  47 NE9       30.14S
LIMON CO       SUNNY     90  49  24 N16G25    30.15R
$$

...UNOFFICIAL OBSERVATIONS...

CITY           SKY/WX    TMP DP  RH WIND       PRES   REMARKS
COLBY KS       SUNNY     86  57  37 CALM      30.06F
LENORA KS        N/A     83  32  16 MISG        N/A
NORTON KS      SUNNY     86  59  39 NE9       30.01F
SHARON SPRINGS   N/A     84  67  56 S14G25      N/A
KIT CARSON CO    N/A     88  59  37 MISG        N/A
YUMA CO          N/A     74  64  71 E12         N/A
$$




USA.gov is the U.S. government's official web portal to all federal, state and local government web resources and services.